Weather History for Gage, OK

Change the Weather History Date:

Thursday, February 14, 2013

  Actual Average Record
Temperature  
Mean Temperature 36 °F -  
Max Temperature 51 °F 50 °F 89 °F (1954)
Min Temperature 21 °F 26 °F 5 °F (2007)
Degree Days  
Heating Degree Days 29    
Moisture  
Dew Point 28 °F    
Average Humidity 75    
Maximum Humidity 92    
Minimum Humidity 54    
Precipitation  
Precipitation 0.00 in - - ()
Sea Level Pressure  
Sea Level Pressure 30.15 in    
Wind  
Wind Speed 7 mph (NNW)    
Max Wind Speed 16 mph    
Max Gust Speed -    
Visibility 9 miles    
Events      
Averages and records for this station are not official NWS values.
T = Trace of Precipitation, MM = Missing Value Source: NWS Daily Summary

Daily Weather History Graph

Daily Weather History Graph

Search for Another Location

Airport:

Trip Planner

Search our weather history database for the weather conditions in past years. The results will help you decide how hot, cold, wet, or windy it might be!

Date:

Astronomy

Feb. 14, 2013 Rise Set
Actual Time 7:27 AM CST 6:19 PM CST
Civil Twilight 7:01 AM CST 6:45 PM CST
Nautical Twilight 6:31 AM CST 7:16 PM CST
Astronomical Twilight 6:01 AM CST 7:45 PM CST
Moon 9:40 AM CST (2/14) 11:13 PM CST (2/14)
Length of Visible Light 11h 44m
Length of Day
10h 51m
Waxing Crescent, 22% of the Moon is Illuminated
Feb 14
Waxing Crescent
Feb 17
First Quarter
Feb 25
Full
Mar 4
Last Quarter
Mar 11
New

Hourly Weather History & Observations

Time (CST) Temp. Windchill Dew Point Humidity Pressure Visibility Wind Dir Wind Speed Gust Speed Precip Events Conditions
12:53 AM 27.0 °F 18.7 °F 21.9 °F 81% 30.05 in 10.0 mi SW 8.1 mph - N/A   Clear
1:53 AM 26.1 °F 19.4 °F 21.0 °F 81% 30.05 in 10.0 mi SW 5.8 mph - N/A   Clear
2:53 AM 24.1 °F - 21.0 °F 88% 30.05 in 10.0 mi Calm Calm - N/A   Clear
3:53 AM 24.1 °F 16.0 °F 19.9 °F 84% 30.04 in 7.0 mi WSW 6.9 mph - N/A   Clear
4:53 AM 23.0 °F 17.0 °F 21.0 °F 92% 30.05 in 7.0 mi WSW 4.6 mph - N/A   Clear
5:53 AM 23.0 °F 14.7 °F 19.9 °F 88% 30.07 in 8.0 mi WSW 6.9 mph - N/A   Clear
6:53 AM 21.9 °F 13.4 °F 19.0 °F 89% 30.11 in 7.0 mi West 6.9 mph - N/A   Clear
7:53 AM 21.9 °F 14.5 °F 19.0 °F 89% 30.12 in 6.0 mi WSW 5.8 mph - N/A   Clear
8:53 AM 28.0 °F 24.2 °F 23.0 °F 81% 30.14 in 10.0 mi WSW 3.5 mph - N/A   Clear
9:53 AM 34.0 °F - 26.1 °F 73% 30.15 in 10.0 mi Calm Calm - N/A   Clear
10:53 AM 39.9 °F 37.8 °F 30.0 °F 68% 30.14 in 10.0 mi NW 3.5 mph - N/A   Mostly Cloudy
11:53 AM 45.0 °F 41.2 °F 30.9 °F 58% 30.14 in 10.0 mi NNE 6.9 mph - N/A   Clear
12:53 PM 46.9 °F - 34.0 °F 61% 30.12 in 10.0 mi North 6.9 mph - N/A   Partly Cloudy
1:53 PM 48.9 °F - 35.1 °F 59% 30.09 in 10.0 mi NNE 8.1 mph - N/A   Partly Cloudy
2:53 PM 51.1 °F - 36.0 °F 56% 30.09 in 10.0 mi NNE 11.5 mph - N/A   Partly Cloudy
3:53 PM 50.0 °F - 34.0 °F 54% 30.12 in 10.0 mi North 9.2 mph - N/A   Mostly Cloudy
4:53 PM 48.0 °F - 33.1 °F 56% 30.14 in 10.0 mi NE 9.2 mph - N/A   Overcast
5:53 PM 46.0 °F 39.3 °F 33.1 °F 61% 30.17 in 10.0 mi North 16.1 mph - N/A   Overcast
6:53 PM 43.0 °F 36.8 °F 32.0 °F 65% 30.21 in 10.0 mi North 11.5 mph - N/A   Overcast
7:53 PM 41.0 °F 33.5 °F 33.1 °F 73% 30.26 in 10.0 mi NNE 13.8 mph - N/A   Overcast
8:53 PM 37.9 °F 31.5 °F 34.0 °F 86% 30.30 in 10.0 mi North 9.2 mph - 0.00 in   Overcast
9:53 PM 37.0 °F 30.4 °F 33.1 °F 86% 30.30 in 10.0 mi North 9.2 mph - N/A   Overcast
10:53 PM 35.1 °F 27.4 °F 30.9 °F 85% 30.30 in 10.0 mi North 10.4 mph - N/A   Mostly Cloudy
11:53 PM 35.1 °F 27.9 °F 28.9 °F 78% 30.31 in 10.0 mi North 9.2 mph - N/A   Mostly Cloudy